DW6983 Weather Reports


time (UTC)temp
C
wind
direction
speed
KPH
gust
KPH
rain 1hr
cm
rain 24hr
cm
rain mn
cm
humidity
%
barometer
mb
20260505223203 20 321 1.6 12.9 0.00 0.00 0.00 68 1014.0
20260505221704 20 136 1.6 14.5 0.00 0.00 0.00 68 1014.2
20260505220219 20 128 1.6 11.3 0.00 0.00 0.00 68 1014.3
20260505214708 20 156 3.2 9.7 0.00 0.00 0.00 68 1014.3
20260505213208 20 137 1.6 12.9 0.00 0.00 0.00 70 1014.3
20260505211651 18 183 3.2 12.9 0.00 0.00 0.00 71 1014.6
20260505210229 18 166 4.8 11.3 0.00 0.00 0.00 69 1014.7
20260505204634 18 140 1.6 14.5 0.00 0.00 0.00 69 1014.7
20260505203203 18 159 4.8 12.9 0.00 0.00 0.00 71 1014.9
20260505201635 18 136 1.6 11.3 0.00 0.00 0.00 74 1015.1
20260505200216 17 271 6.4 16.1 0.00 0.00 0.00 74 1015.1
20260505194654 16 286 8.0 12.9 0.00 0.00 0.00 74 1015.1
20260505193150 16 225 0.0 4.8 0.00 0.00 0.00 74 1015.2
20260505191632 16 238 3.2 8.0 0.00 0.00 0.00 74 1015.2
20260505190201 15 248 0.0 6.4 0.00 0.00 0.00 75 1015.3
20260505184615 15 186 0.0 4.8 0.00 0.00 0.00 75 1015.4
20260505183149 15 264 1.6 14.5 0.00 0.00 0.00 78 1015.4
20260505181635 15 265 0.0 0.0 0.00 0.00 0.00 76 1015.2
20260505180205 15 264 0.0 0.0 0.00 0.00 0.00 79 1015.3
20260505174639 14 273 0.0 0.0 0.00 0.00 0.00 79 1015.2
20260505173137 14 273 0.0 0.0 0.00 0.00 0.00 80 1015.2
20260505171626 13 276 0.0 3.2 0.00 0.00 0.00 81 1015.2
20260505170157 13 277 1.6 3.2 0.00 0.00 0.00 81 1015.1
20260505164624 13 277 0.0 4.8 0.00 0.00 0.00 84 1015.1
20260505163101 13 286 0.0 0.0 0.00 0.00 0.00 85 1015.1
20260505161608 12 286 0.0 0.0 0.00 0.00 0.00 86 1015.2
20260505160142 12 286 0.0 0.0 0.00 0.00 0.00 87 1015.2
20260505153131 12 286 0.0 0.0 0.00 0.00 0.00 88 1015.3
20260505151629 11 286 0.0 4.8 0.00 0.00 0.00 90 1015.3
20260505150138 11 284 3.2 8.0 0.00 0.00 0.00 91 1015.1
20260505140151 11 317 0.0 0.0 0.00 0.00 0.00 92 1015.0
20260505130155 11 317 0.0 0.0 0.00 0.00 0.00 92 1014.6
20260505124653 11 317 0.0 0.0 0.00 0.00 0.00 91 1014.6
20260505123139 11 317 0.0 0.0 0.00 0.00 0.00 91 1014.3
20260505121717 11 317 0.0 0.0 0.00 0.00 0.00 90 1014.1
20260505120105 11 317 0.0 0.0 0.00 0.00 0.00 89 1014.2
20260505114638 11 317 0.0 0.0 0.00 0.00 0.00 89 1014.1
20260505113105 11 315 0.0 0.0 0.00 0.00 0.00 89 1014.0
20260505111619 12 315 0.0 0.0 0.00 0.00 0.00 88 1014.0
20260505110142 12 315 0.0 0.0 0.00 0.00 0.00 87 1013.8
20260505101609 12 315 0.0 0.0 0.00 0.00 0.00 85 1013.6
20260505100128 12 315 0.0 0.0 0.00 0.00 0.00 85 1013.6
20260505094635 12 315 0.0 0.0 0.00 0.00 0.00 85 1013.7
20260505093126 12 315 0.0 0.0 0.00 0.00 0.00 85 1013.7
20260505091641 12 315 0.0 0.0 0.00 0.00 0.00 84 1013.7
20260505090138 12 315 0.0 0.0 0.00 0.00 0.00 84 1013.7
20260505084642 12 315 0.0 0.0 0.00 0.00 0.00 84 1013.8
20260505083112 12 315 0.0 0.0 0.00 0.00 0.00 84 1013.8
20260505081650 12 315 0.0 0.0 0.00 0.00 0.00 84 1013.8
20260505080158 12 315 0.0 0.0 0.00 0.00 0.00 83 1014.0
20260505074642 12 315 0.0 0.0 0.00 0.00 0.00 84 1014.0
20260505073156 13 315 0.0 0.0 0.00 0.00 0.00 83 1014.1
20260505071649 13 315 0.0 0.0 0.00 0.00 0.00 83 1014.0
20260505070155 13 315 0.0 0.0 0.00 0.00 0.00 83 1014.1
20260505064658 13 315 0.0 0.0 0.00 0.00 0.00 82 1014.1
20260505063150 13 315 0.0 0.0 0.00 0.00 0.00 82 1014.0
20260505061654 13 315 0.0 0.0 0.00 0.00 0.00 82 1013.8
20260505060153 13 316 0.0 0.0 0.00 0.00 0.00 82 1013.8
20260505054637 13 316 0.0 0.0 0.00 0.00 0.00 81 1013.8
20260505053059 13 316 0.0 0.0 0.00 0.00 0.00 81 1013.6
20260505051643 13 316 0.0 0.0 0.00 0.00 0.00 81 1013.7
20260505050144 13 315 1.6 8.0 0.00 0.00 0.00 81 1013.6
20260505041659 13 334 0.0 6.4 0.00 0.00 0.00 80 1013.2
20260505040213 13 325 1.6 12.9 0.00 0.00 0.00 80 1013.0
20260505034704 13 319 3.2 12.9 0.00 0.00 0.00 80 1012.8
20260505033211 14 324 1.6 14.5 0.00 0.00 0.00 79 1012.5
20260505031648 14 360 6.4 19.3 0.00 0.00 0.00 78 1012.4
20260505030208 15 313 3.2 16.1 0.00 0.00 0.00 76 1012.1
20260505024700 15 324 0.0 14.5 0.00 0.00 0.00 76 1011.9
20260505023209 15 294 3.2 16.1 0.00 0.00 0.00 75 1011.9
20260505021708 16 316 3.2 12.9 0.00 0.00 0.00 73 1011.7
20260505020202 17 341 6.4 17.7 0.00 0.00 0.00 71 1011.5
20260505014703 17 61 8.0 22.5 0.00 0.00 0.00 71 1011.3
20260505013208 17 47 8.0 24.1 0.00 0.00 0.00 69 1011.3
20260505011617 18 355 3.2 25.7 0.00 0.00 0.00 71 1011.2
20260505010210 18 70 3.2 20.9 0.00 0.00 0.00 71 1011.2
20260505004707 18 323 11.3 22.5 0.00 0.00 0.00 68 1011.1
20260505003210 19 67 9.7 20.9 0.00 0.00 0.00 68 1011.0
20260505001631 20 360 4.8 19.3 0.00 0.00 0.00 65 1010.9
20260505000153 20 87 1.6 14.5 0.00 0.00 0.00 67 1011.2
20260504234656 20 52 3.2 11.3 0.00 0.00 0.00 64 1011.2
20260504233252 20 309 3.2 11.3 0.00 0.00 0.00 67 1011.3
20260504231642 21 323 3.2 11.3 0.00 0.00 0.00 65 1011.4
20260504230214 20 355 4.8 14.5 0.00 0.00 0.00 68 1011.4
20260504224707 20 124 0.0 4.8 0.00 0.00 0.00 68 1011.5